owner,sensor,date,latitude,longitude,vertical_datum,mass_concentration_of_oxygen_in_sea_water,qcFlag 
SCCF RECON,ioos:station:SCCF:18:1,2019-09-01T04:00:00Z,26.6955,-81.8138,0.92,3.38,11111222 
SCCF RECON,ioos:station:SCCF:18:1,2019-09-01T05:00:00Z,26.6955,-81.8138,0.86,3.28,11111222 
SCCF RECON,ioos:station:SCCF:18:1,2019-09-01T06:00:00Z,26.6955,-81.8138,0.83,3.12,11111222 
SCCF RECON,ioos:station:SCCF:18:1,2019-09-01T07:00:00Z,26.6955,-81.8138,0.863,3.22,11111222 
SCCF RECON,ioos:station:SCCF:18:1,2019-09-01T08:00:00Z,26.6955,-81.8138,0.91,3.31,11111222 
SCCF RECON,ioos:station:SCCF:18:1,2019-09-01T09:00:00Z,26.6955,-81.8138,0.963,3.28,11111222 
SCCF RECON,ioos:station:SCCF:18:1,2019-09-01T10:00:00Z,26.6955,-81.8138,1.022,3.3,11111222 
SCCF RECON,ioos:station:SCCF:18:1,2019-09-01T11:00:00Z,26.6955,-81.8138,1.07,3.31,11111222 
SCCF RECON,ioos:station:SCCF:18:1,2019-09-01T12:00:00Z,26.6955,-81.8138,1.08,3.19,11111222 
SCCF RECON,ioos:station:SCCF:18:1,2019-09-01T13:00:00Z,26.6955,-81.8138,1.053,3.25,11111222 
SCCF RECON,ioos:station:SCCF:18:1,2019-09-01T14:00:00Z,26.6955,-81.8138,1.01,3.25,11111222 
SCCF RECON,ioos:station:SCCF:18:1,2019-09-01T15:00:00Z,26.6955,-81.8138,0.969,3.18,11111222 
SCCF RECON,ioos:station:SCCF:18:1,2019-09-01T16:00:00Z,26.6955,-81.8138,0.921,3.28,11111222 
SCCF RECON,ioos:station:SCCF:18:1,2019-09-01T17:00:00Z,26.6955,-81.8138,0.88,3.27,11111222 
SCCF RECON,ioos:station:SCCF:18:1,2019-09-01T18:00:00Z,26.6955,-81.8138,0.897,3.32,11111222 
SCCF RECON,ioos:station:SCCF:18:1,2019-09-01T19:00:00Z,26.6955,-81.8138,0.98,3.36,11111222 
SCCF RECON,ioos:station:SCCF:18:1,2019-09-01T20:00:00Z,26.6955,-81.8138,1.03,3.27,11111222 
SCCF RECON,ioos:station:SCCF:18:1,2019-09-01T21:00:00Z,26.6955,-81.8138,1.089,3.33,11111222 
SCCF RECON,ioos:station:SCCF:18:1,2019-09-01T22:00:00Z,26.6955,-81.8138,1.16,3.37,11111222 
SCCF RECON,ioos:station:SCCF:18:1,2019-09-01T23:00:00Z,26.6955,-81.8138,1.22,3.45,11111222 
SCCF RECON,ioos:station:SCCF:18:1,2019-09-02T04:00:00Z,26.6955,-81.8138,1.013,3.26,11111222 
SCCF RECON,ioos:station:SCCF:18:1,2019-09-02T05:00:00Z,26.6955,-81.8138,0.94,3.1,11111222 
SCCF RECON,ioos:station:SCCF:18:1,2019-09-02T06:00:00Z,26.6955,-81.8138,0.884,3.0,11111222 
SCCF RECON,ioos:station:SCCF:18:1,2019-09-02T07:00:00Z,26.6955,-81.8138,0.881,3.05,11111222 
SCCF RECON,ioos:station:SCCF:18:1,2019-09-02T08:00:00Z,26.6955,-81.8138,0.93,3.22,11111222 
SCCF RECON,ioos:station:SCCF:18:1,2019-09-02T09:00:00Z,26.6955,-81.8138,0.978,3.08,11111222 
SCCF RECON,ioos:station:SCCF:18:1,2019-09-02T10:00:00Z,26.6955,-81.8138,1.04,3.09,11111222 
SCCF RECON,ioos:station:SCCF:18:1,2019-09-02T11:00:00Z,26.6955,-81.8138,1.08,3.07,11111222 
SCCF RECON,ioos:station:SCCF:18:1,2019-09-02T12:00:00Z,26.6955,-81.8138,1.092,3.05,11111222 
SCCF RECON,ioos:station:SCCF:18:1,2019-09-02T13:00:00Z,26.6955,-81.8138,1.08,3.24,11111222 
SCCF RECON,ioos:station:SCCF:18:1,2019-09-02T16:00:00Z,26.6955,-81.8138,0.935,3.32,11111222 
SCCF RECON,ioos:station:SCCF:18:1,2019-09-02T17:00:00Z,26.6955,-81.8138,0.88,3.38,11111222 
SCCF RECON,ioos:station:SCCF:18:1,2019-09-02T18:00:00Z,26.6955,-81.8138,0.83,3.39,11111222 
SCCF RECON,ioos:station:SCCF:18:1,2019-09-02T19:00:00Z,26.6955,-81.8138,0.793,3.52,11111222 
SCCF RECON,ioos:station:SCCF:18:1,2019-09-02T20:00:00Z,26.6955,-81.8138,0.83,3.29,11111222 
SCCF RECON,ioos:station:SCCF:18:1,2019-09-02T21:00:00Z,26.6955,-81.8138,0.907,3.55,11111222 
SCCF RECON,ioos:station:SCCF:18:1,2019-09-02T22:00:00Z,26.6955,-81.8138,0.97,3.69,11111222 
SCCF RECON,ioos:station:SCCF:18:1,2019-09-02T23:00:00Z,26.6955,-81.8138,1.035,3.78,11111222 
SCCF RECON,ioos:station:SCCF:18:1,2019-09-03T04:00:00Z,26.6955,-81.8138,0.92,3.74,11111222 
SCCF RECON,ioos:station:SCCF:18:1,2019-09-03T05:00:00Z,26.6955,-81.8138,0.881,3.46,11111222 
SCCF RECON,ioos:station:SCCF:18:1,2019-09-03T06:00:00Z,26.6955,-81.8138,0.822,3.63,11111222 
SCCF RECON,ioos:station:SCCF:18:1,2019-09-03T07:00:00Z,26.6955,-81.8138,0.791,3.7,11111222 
SCCF RECON,ioos:station:SCCF:18:1,2019-09-03T08:00:00Z,26.6955,-81.8138,0.791,3.62,11111222 
SCCF RECON,ioos:station:SCCF:18:1,2019-09-03T09:00:00Z,26.6955,-81.8138,0.82,3.71,11111222 
SCCF RECON,ioos:station:SCCF:18:1,2019-09-03T10:00:00Z,26.6955,-81.8138,0.862,3.67,11111222 
SCCF RECON,ioos:station:SCCF:18:1,2019-09-03T11:00:00Z,26.6955,-81.8138,0.94,3.72,11111222 
SCCF RECON,ioos:station:SCCF:18:1,2019-09-03T12:00:00Z,26.6955,-81.8138,0.987,3.7,11111222 
SCCF RECON,ioos:station:SCCF:18:1,2019-09-03T14:00:00Z,26.6955,-81.8138,0.98,3.54,11111222 
SCCF RECON,ioos:station:SCCF:18:1,2019-09-03T15:00:00Z,26.6955,-81.8138,0.94,3.7,11111222 
SCCF RECON,ioos:station:SCCF:18:1,2019-09-03T16:00:00Z,26.6955,-81.8138,0.89,3.83,11111222 
SCCF RECON,ioos:station:SCCF:18:1,2019-09-03T17:00:00Z,26.6955,-81.8138,0.84,3.66,11111222 
SCCF RECON,ioos:station:SCCF:18:1,2019-09-03T18:00:00Z,26.6955,-81.8138,0.81,3.86,11111222 
SCCF RECON,ioos:station:SCCF:18:1,2019-09-03T19:00:00Z,26.6955,-81.8138,0.77,4.11,11111222 
SCCF RECON,ioos:station:SCCF:18:1,2019-09-03T20:00:00Z,26.6955,-81.8138,0.7,4.03,11111222 
SCCF RECON,ioos:station:SCCF:18:1,2019-09-03T21:00:00Z,26.6955,-81.8138,0.75,3.69,11111222 
SCCF RECON,ioos:station:SCCF:18:1,2019-09-03T22:00:00Z,26.6955,-81.8138,0.82,3.72,11111222 
SCCF RECON,ioos:station:SCCF:18:1,2019-09-03T23:00:00Z,26.6955,-81.8138,0.89,4.1,11111222 
SCCF RECON,ioos:station:SCCF:18:1,2019-09-04T04:00:00Z,26.6955,-81.8138,0.931,4.09,11111222 
SCCF RECON,ioos:station:SCCF:18:1,2019-09-04T05:00:00Z,26.6955,-81.8138,0.91,4.13,11111222 
SCCF RECON,ioos:station:SCCF:18:1,2019-09-04T06:00:00Z,26.6955,-81.8138,0.86,4.01,11111222 
SCCF RECON,ioos:station:SCCF:18:1,2019-09-04T07:00:00Z,26.6955,-81.8138,0.828,4.04,11111222 
SCCF RECON,ioos:station:SCCF:18:1,2019-09-04T08:00:00Z,26.6955,-81.8138,0.83,3.72,11111222 
SCCF RECON,ioos:station:SCCF:18:1,2019-09-04T09:00:00Z,26.6955,-81.8138,0.857,3.98,11111222 
SCCF RECON,ioos:station:SCCF:18:1,2019-09-04T10:00:00Z,26.6955,-81.8138,0.912,3.97,11111222 
SCCF RECON,ioos:station:SCCF:18:1,2019-09-04T11:00:00Z,26.6955,-81.8138,0.98,3.89,11111222 
SCCF RECON,ioos:station:SCCF:18:1,2019-09-04T12:00:00Z,26.6955,-81.8138,1.03,3.81,11111222 
SCCF RECON,ioos:station:SCCF:18:1,2019-09-04T13:00:00Z,26.6955,-81.8138,1.081,3.76,11111222 
SCCF RECON,ioos:station:SCCF:18:1,2019-09-04T14:00:00Z,26.6955,-81.8138,1.117,3.61,11111222 
SCCF RECON,ioos:station:SCCF:18:1,2019-09-04T15:00:00Z,26.6955,-81.8138,1.103,3.65,11111222 
SCCF RECON,ioos:station:SCCF:18:1,2019-09-04T16:00:00Z,26.6955,-81.8138,1.074,3.69,11111222 
SCCF RECON,ioos:station:SCCF:18:1,2019-09-04T17:00:00Z,26.6955,-81.8138,1.032,4.12,11111222 
SCCF RECON,ioos:station:SCCF:18:1,2019-09-04T18:00:00Z,26.6955,-81.8138,1.002,4.42,11111222 
SCCF RECON,ioos:station:SCCF:18:1,2019-09-04T19:00:00Z,26.6955,-81.8138,0.96,4.45,11111222 
SCCF RECON,ioos:station:SCCF:18:1,2019-09-04T20:00:00Z,26.6955,-81.8138,0.9,4.6,11111222 
SCCF RECON,ioos:station:SCCF:18:1,2019-09-04T21:00:00Z,26.6955,-81.8138,0.857,4.09,11111222 
SCCF RECON,ioos:station:SCCF:18:1,2019-09-04T22:00:00Z,26.6955,-81.8138,0.864,3.85,11111222 
SCCF RECON,ioos:station:SCCF:18:1,2019-09-04T23:00:00Z,26.6955,-81.8138,0.9,3.95,11111222 
SCCF RECON,ioos:station:SCCF:18:1,2019-09-05T04:00:00Z,26.6955,-81.8138,1.05,4.6,11111222 
SCCF RECON,ioos:station:SCCF:18:1,2019-09-05T05:00:00Z,26.6955,-81.8138,1.02,4.59,11111222 
SCCF RECON,ioos:station:SCCF:18:1,2019-09-05T06:00:00Z,26.6955,-81.8138,0.972,4.48,11111222 
SCCF RECON,ioos:station:SCCF:18:1,2019-09-05T07:00:00Z,26.6955,-81.8138,0.95,4.5,11111222 
SCCF RECON,ioos:station:SCCF:18:1,2019-09-05T08:00:00Z,26.6955,-81.8138,0.941,4.4,11111222 
SCCF RECON,ioos:station:SCCF:18:1,2019-09-05T09:00:00Z,26.6955,-81.8138,0.95,4.41,11111222 
SCCF RECON,ioos:station:SCCF:18:1,2019-09-05T11:00:00Z,26.6955,-81.8138,1.05,4.62,11111222 
SCCF RECON,ioos:station:SCCF:18:1,2019-09-05T12:00:00Z,26.6955,-81.8138,1.11,4.64,11111222 
SCCF RECON,ioos:station:SCCF:18:1,2019-09-05T13:00:00Z,26.6955,-81.8138,1.16,4.38,11111222 
SCCF RECON,ioos:station:SCCF:18:1,2019-09-05T14:00:00Z,26.6955,-81.8138,1.19,4.34,11111222 
SCCF RECON,ioos:station:SCCF:18:1,2019-09-05T15:00:00Z,26.6955,-81.8138,1.21,4.04,11111222 
SCCF RECON,ioos:station:SCCF:18:1,2019-09-05T16:00:00Z,26.6955,-81.8138,1.178,3.92,11111222 
SCCF RECON,ioos:station:SCCF:18:1,2019-09-05T17:00:00Z,26.6955,-81.8138,1.117,4.12,11111222 
SCCF RECON,ioos:station:SCCF:18:1,2019-09-05T18:00:00Z,26.6955,-81.8138,1.068,4.05,11111222 
SCCF RECON,ioos:station:SCCF:18:1,2019-09-05T19:00:00Z,26.6955,-81.8138,1.019,4.25,11111222 
SCCF RECON,ioos:station:SCCF:18:1,2019-09-05T21:00:00Z,26.6955,-81.8138,0.899,4.22,11111222 
SCCF RECON,ioos:station:SCCF:18:1,2019-09-05T22:00:00Z,26.6955,-81.8138,0.85,4.04,11111222 
SCCF RECON,ioos:station:SCCF:18:1,2019-09-05T23:00:00Z,26.6955,-81.8138,0.851,3.74,11111222 
SCCF RECON,ioos:station:SCCF:18:1,2019-09-06T04:00:00Z,26.6955,-81.8138,1.029,3.83,11111222 
SCCF RECON,ioos:station:SCCF:18:1,2019-09-06T05:00:00Z,26.6955,-81.8138,1.05,4.01,11111222 
SCCF RECON,ioos:station:SCCF:18:1,2019-09-06T07:00:00Z,26.6955,-81.8138,1.038,4.06,11111222 
SCCF RECON,ioos:station:SCCF:18:1,2019-09-06T08:00:00Z,26.6955,-81.8138,1.01,4.25,11111222 
SCCF RECON,ioos:station:SCCF:18:1,2019-09-06T09:00:00Z,26.6955,-81.8138,0.987,3.96,11111222 
SCCF RECON,ioos:station:SCCF:18:1,2019-09-06T10:00:00Z,26.6955,-81.8138,1.0,3.99,11111222 
SCCF RECON,ioos:station:SCCF:18:1,2019-09-06T11:00:00Z,26.6955,-81.8138,1.041,3.95,11111222 
SCCF RECON,ioos:station:SCCF:18:1,2019-09-06T12:00:00Z,26.6955,-81.8138,1.089,4.06,11111222 
SCCF RECON,ioos:station:SCCF:18:1,2019-09-06T13:00:00Z,26.6955,-81.8138,1.14,4.16,11111222 
SCCF RECON,ioos:station:SCCF:18:1,2019-09-06T14:00:00Z,26.6955,-81.8138,1.19,4.21,11111222 
SCCF RECON,ioos:station:SCCF:18:1,2019-09-06T15:00:00Z,26.6955,-81.8138,1.21,4.23,11111222 
SCCF RECON,ioos:station:SCCF:18:1,2019-09-06T16:00:00Z,26.6955,-81.8138,1.216,4.06,11111222 
SCCF RECON,ioos:station:SCCF:18:1,2019-09-06T17:00:00Z,26.6955,-81.8138,1.185,4.23,11111222 
SCCF RECON,ioos:station:SCCF:18:1,2019-09-06T18:00:00Z,26.6955,-81.8138,1.11,4.0,11111222 
SCCF RECON,ioos:station:SCCF:18:1,2019-09-06T19:00:00Z,26.6955,-81.8138,1.07,4.31,11111222 
SCCF RECON,ioos:station:SCCF:18:1,2019-09-06T20:00:00Z,26.6955,-81.8138,1.03,4.22,11111222 
SCCF RECON,ioos:station:SCCF:18:1,2019-09-06T21:00:00Z,26.6955,-81.8138,0.957,4.25,11111222 
SCCF RECON,ioos:station:SCCF:18:1,2019-09-06T22:00:00Z,26.6955,-81.8138,0.918,4.41,11111222 
SCCF RECON,ioos:station:SCCF:18:1,2019-09-06T23:00:00Z,26.6955,-81.8138,0.84,3.75,11111222 
SCCF RECON,ioos:station:SCCF:18:1,2019-09-07T04:00:00Z,26.6955,-81.8138,0.98,4.11,11111222 
SCCF RECON,ioos:station:SCCF:18:1,2019-09-07T05:00:00Z,26.6955,-81.8138,1.03,4.23,11111222 
SCCF RECON,ioos:station:SCCF:18:1,2019-09-07T06:00:00Z,26.6955,-81.8138,1.07,4.32,11111222 
SCCF RECON,ioos:station:SCCF:18:1,2019-09-07T07:00:00Z,26.6955,-81.8138,1.094,4.3,11111222 
SCCF RECON,ioos:station:SCCF:18:1,2019-09-07T08:00:00Z,26.6955,-81.8138,1.12,4.26,11111222 
SCCF RECON,ioos:station:SCCF:18:1,2019-09-07T09:00:00Z,26.6955,-81.8138,1.123,4.23,11111222 
SCCF RECON,ioos:station:SCCF:18:1,2019-09-07T10:00:00Z,26.6955,-81.8138,1.111,4.12,11111222 
SCCF RECON,ioos:station:SCCF:18:1,2019-09-07T11:00:00Z,26.6955,-81.8138,1.12,4.27,11111222 
SCCF RECON,ioos:station:SCCF:18:1,2019-09-07T12:00:00Z,26.6955,-81.8138,1.13,4.28,11111222 
SCCF RECON,ioos:station:SCCF:18:1,2019-09-07T13:00:00Z,26.6955,-81.8138,1.163,4.2,11111222 
SCCF RECON,ioos:station:SCCF:18:1,2019-09-07T14:00:00Z,26.6955,-81.8138,1.207,4.37,11111222 
SCCF RECON,ioos:station:SCCF:18:1,2019-09-07T15:00:00Z,26.6955,-81.8138,1.224,4.21,11111222 
SCCF RECON,ioos:station:SCCF:18:1,2019-09-07T16:00:00Z,26.6955,-81.8138,1.24,4.41,11111222 
SCCF RECON,ioos:station:SCCF:18:1,2019-09-07T17:00:00Z,26.6955,-81.8138,1.249,4.45,11111222 
SCCF RECON,ioos:station:SCCF:18:1,2019-09-07T18:00:00Z,26.6955,-81.8138,1.2,4.18,11111222 
SCCF RECON,ioos:station:SCCF:18:1,2019-09-07T19:00:00Z,26.6955,-81.8138,1.126,4.07,11111222 
SCCF RECON,ioos:station:SCCF:18:1,2019-09-07T20:00:00Z,26.6955,-81.8138,1.07,4.22,11111222 
SCCF RECON,ioos:station:SCCF:18:1,2019-09-07T21:00:00Z,26.6955,-81.8138,1.02,4.43,11111222 
SCCF RECON,ioos:station:SCCF:18:1,2019-09-07T22:00:00Z,26.6955,-81.8138,0.96,4.53,11111222 
SCCF RECON,ioos:station:SCCF:18:1,2019-09-07T23:00:00Z,26.6955,-81.8138,0.91,4.07,11111222 
SCCF RECON,ioos:station:SCCF:18:1,2019-09-08T04:00:00Z,26.6955,-81.8138,0.939,4.17,11111222 
SCCF RECON,ioos:station:SCCF:18:1,2019-09-08T05:00:00Z,26.6955,-81.8138,0.97,4.25,11111222 
SCCF RECON,ioos:station:SCCF:18:1,2019-09-08T06:00:00Z,26.6955,-81.8138,1.02,4.24,11111222 
SCCF RECON,ioos:station:SCCF:18:1,2019-09-08T07:00:00Z,26.6955,-81.8138,1.07,4.26,11111222 
SCCF RECON,ioos:station:SCCF:18:1,2019-09-08T08:00:00Z,26.6955,-81.8138,1.11,4.3,11111222 
SCCF RECON,ioos:station:SCCF:18:1,2019-09-08T09:00:00Z,26.6955,-81.8138,1.12,4.54,11111222 
SCCF RECON,ioos:station:SCCF:18:1,2019-09-08T10:00:00Z,26.6955,-81.8138,1.129,4.53,11111222 
SCCF RECON,ioos:station:SCCF:18:1,2019-09-08T11:00:00Z,26.6955,-81.8138,1.1,4.41,11111222 
SCCF RECON,ioos:station:SCCF:18:1,2019-09-08T13:00:00Z,26.6955,-81.8138,1.11,4.36,11111222 
SCCF RECON,ioos:station:SCCF:18:1,2019-09-08T14:00:00Z,26.6955,-81.8138,1.146,4.35,11111222 
SCCF RECON,ioos:station:SCCF:18:1,2019-09-08T15:00:00Z,26.6955,-81.8138,1.19,4.43,11111222 
SCCF RECON,ioos:station:SCCF:18:1,2019-09-08T16:00:00Z,26.6955,-81.8138,1.24,4.48,11111222 
SCCF RECON,ioos:station:SCCF:18:1,2019-09-08T17:00:00Z,26.6955,-81.8138,1.266,4.26,11111222 
SCCF RECON,ioos:station:SCCF:18:1,2019-09-08T18:00:00Z,26.6955,-81.8138,1.289,4.19,11111222 
SCCF RECON,ioos:station:SCCF:18:1,2019-09-08T19:00:00Z,26.6955,-81.8138,1.26,4.38,11111222 
SCCF RECON,ioos:station:SCCF:18:1,2019-09-08T20:00:00Z,26.6955,-81.8138,1.199,4.24,11111222 
SCCF RECON,ioos:station:SCCF:18:1,2019-09-08T21:00:00Z,26.6955,-81.8138,1.159,4.47,11111222 
SCCF RECON,ioos:station:SCCF:18:1,2019-09-08T22:00:00Z,26.6955,-81.8138,1.09,4.38,11111222 
SCCF RECON,ioos:station:SCCF:18:1,2019-09-08T23:00:00Z,26.6955,-81.8138,1.04,4.25,11111222 
SCCF RECON,ioos:station:SCCF:18:1,2019-09-09T04:00:00Z,26.6955,-81.8138,0.94,3.99,11111222 
SCCF RECON,ioos:station:SCCF:18:1,2019-09-09T05:00:00Z,26.6955,-81.8138,1.0,4.27,11111222 
SCCF RECON,ioos:station:SCCF:18:1,2019-09-09T06:00:00Z,26.6955,-81.8138,1.04,4.16,11111222 
SCCF RECON,ioos:station:SCCF:18:1,2019-09-09T07:00:00Z,26.6955,-81.8138,1.08,4.1,11111222 
SCCF RECON,ioos:station:SCCF:18:1,2019-09-09T08:00:00Z,26.6955,-81.8138,1.121,4.11,11111222 
SCCF RECON,ioos:station:SCCF:18:1,2019-09-09T09:00:00Z,26.6955,-81.8138,1.131,4.12,11111222 
SCCF RECON,ioos:station:SCCF:18:1,2019-09-09T10:00:00Z,26.6955,-81.8138,1.13,4.27,11111222 
SCCF RECON,ioos:station:SCCF:18:1,2019-09-09T11:00:00Z,26.6955,-81.8138,1.12,4.43,11111222 
SCCF RECON,ioos:station:SCCF:18:1,2019-09-09T12:00:00Z,26.6955,-81.8138,1.073,4.44,11111222 
SCCF RECON,ioos:station:SCCF:18:1,2019-09-09T13:00:00Z,26.6955,-81.8138,1.085,4.18,11111222 
SCCF RECON,ioos:station:SCCF:18:1,2019-09-09T14:00:00Z,26.6955,-81.8138,1.07,4.27,11111222 
SCCF RECON,ioos:station:SCCF:18:1,2019-09-09T15:00:00Z,26.6955,-81.8138,1.12,4.31,11111222 
SCCF RECON,ioos:station:SCCF:18:1,2019-09-09T16:00:00Z,26.6955,-81.8138,1.16,4.19,11111222 
SCCF RECON,ioos:station:SCCF:18:1,2019-09-09T17:00:00Z,26.6955,-81.8138,1.212,4.28,11111222 
SCCF RECON,ioos:station:SCCF:18:1,2019-09-09T18:00:00Z,26.6955,-81.8138,1.249,4.24,11111222 
SCCF RECON,ioos:station:SCCF:18:1,2019-09-09T22:00:00Z,26.6955,-81.8138,1.1,4.77,11111222 
SCCF RECON,ioos:station:SCCF:18:1,2019-09-09T23:00:00Z,26.6955,-81.8138,1.032,4.79,11111222 
SCCF RECON,ioos:station:SCCF:18:1,2019-09-10T04:00:00Z,26.6955,-81.8138,0.908,4.43,11111222 
SCCF RECON,ioos:station:SCCF:18:1,2019-09-10T05:00:00Z,26.6955,-81.8138,0.95,4.47,11111222 
SCCF RECON,ioos:station:SCCF:18:1,2019-09-10T06:00:00Z,26.6955,-81.8138,1.0,4.34,11111222 
SCCF RECON,ioos:station:SCCF:18:1,2019-09-10T07:00:00Z,26.6955,-81.8138,1.028,4.41,11111222 
SCCF RECON,ioos:station:SCCF:18:1,2019-09-10T08:00:00Z,26.6955,-81.8138,1.07,4.39,11111222 
SCCF RECON,ioos:station:SCCF:18:1,2019-09-10T09:00:00Z,26.6955,-81.8138,1.1,4.36,11111222 
SCCF RECON,ioos:station:SCCF:18:1,2019-09-10T10:00:00Z,26.6955,-81.8138,1.088,4.38,11111222 
SCCF RECON,ioos:station:SCCF:18:1,2019-09-10T11:00:00Z,26.6955,-81.8138,1.077,4.48,11111222 
SCCF RECON,ioos:station:SCCF:18:1,2019-09-10T12:00:00Z,26.6955,-81.8138,1.059,4.47,11111222 
SCCF RECON,ioos:station:SCCF:18:1,2019-09-10T13:00:00Z,26.6955,-81.8138,1.037,4.48,11111222 
SCCF RECON,ioos:station:SCCF:18:1,2019-09-10T14:00:00Z,26.6955,-81.8138,1.033,4.57,11111222 
SCCF RECON,ioos:station:SCCF:18:1,2019-09-10T15:00:00Z,26.6955,-81.8138,1.03,4.48,11111222 
SCCF RECON,ioos:station:SCCF:18:1,2019-09-10T16:00:00Z,26.6955,-81.8138,1.088,4.48,11111222 
SCCF RECON,ioos:station:SCCF:18:1,2019-09-10T17:00:00Z,26.6955,-81.8138,1.14,4.53,11111222 
SCCF RECON,ioos:station:SCCF:18:1,2019-09-10T18:00:00Z,26.6955,-81.8138,1.182,4.77,11111222 
SCCF RECON,ioos:station:SCCF:18:1,2019-09-10T19:00:00Z,26.6955,-81.8138,1.22,4.95,11111222 
SCCF RECON,ioos:station:SCCF:18:1,2019-09-10T20:00:00Z,26.6955,-81.8138,1.21,4.78,11111222 
SCCF RECON,ioos:station:SCCF:18:1,2019-09-10T22:00:00Z,26.6955,-81.8138,1.1,4.89,11111222 
SCCF RECON,ioos:station:SCCF:18:1,2019-09-10T23:00:00Z,26.6955,-81.8138,1.02,5.0,11111222 
SCCF RECON,ioos:station:SCCF:18:1,2019-09-11T04:00:00Z,26.6955,-81.8138,0.78,4.92,11111222 
SCCF RECON,ioos:station:SCCF:18:1,2019-09-11T05:00:00Z,26.6955,-81.8138,0.802,4.84,11111222 
SCCF RECON,ioos:station:SCCF:18:1,2019-09-11T06:00:00Z,26.6955,-81.8138,0.84,5.08,11111222 
SCCF RECON,ioos:station:SCCF:18:1,2019-09-11T07:00:00Z,26.6955,-81.8138,0.879,5.1,11111222 
SCCF RECON,ioos:station:SCCF:18:1,2019-09-11T08:00:00Z,26.6955,-81.8138,0.911,5.1,11111222 
SCCF RECON,ioos:station:SCCF:18:1,2019-09-11T09:00:00Z,26.6955,-81.8138,0.95,5.03,11111222 
SCCF RECON,ioos:station:SCCF:18:1,2019-09-11T10:00:00Z,26.6955,-81.8138,0.95,5.17,11111222 
SCCF RECON,ioos:station:SCCF:18:1,2019-09-11T11:00:00Z,26.6955,-81.8138,0.93,5.14,11111222 
SCCF RECON,ioos:station:SCCF:18:1,2019-09-11T12:00:00Z,26.6955,-81.8138,0.91,5.07,11111222 
SCCF RECON,ioos:station:SCCF:18:1,2019-09-11T13:00:00Z,26.6955,-81.8138,0.873,5.04,11111222 
SCCF RECON,ioos:station:SCCF:18:1,2019-09-11T15:00:00Z,26.6955,-81.8138,0.86,5.22,11111222 
SCCF RECON,ioos:station:SCCF:18:1,2019-09-11T16:00:00Z,26.6955,-81.8138,0.9,5.3,11111222 
SCCF RECON,ioos:station:SCCF:18:1,2019-09-11T17:00:00Z,26.6955,-81.8138,0.94,5.42,11111222 
SCCF RECON,ioos:station:SCCF:18:1,2019-09-11T18:00:00Z,26.6955,-81.8138,0.952,5.53,11111222 
SCCF RECON,ioos:station:SCCF:18:1,2019-09-11T19:00:00Z,26.6955,-81.8138,1.02,5.59,11111222 
SCCF RECON,ioos:station:SCCF:18:1,2019-09-11T20:00:00Z,26.6955,-81.8138,1.06,5.46,11111222 
SCCF RECON,ioos:station:SCCF:18:1,2019-09-11T21:00:00Z,26.6955,-81.8138,1.03,5.54,11111222 
SCCF RECON,ioos:station:SCCF:18:1,2019-09-11T22:00:00Z,26.6955,-81.8138,0.989,5.53,11111222 
SCCF RECON,ioos:station:SCCF:18:1,2019-09-11T23:00:00Z,26.6955,-81.8138,0.923,5.54,11111222 
SCCF RECON,ioos:station:SCCF:18:1,2019-09-12T04:00:00Z,26.6955,-81.8138,0.699,5.49,11111222 
SCCF RECON,ioos:station:SCCF:18:1,2019-09-12T05:00:00Z,26.6955,-81.8138,0.68,5.45,11111222 
SCCF RECON,ioos:station:SCCF:18:1,2019-09-12T06:00:00Z,26.6955,-81.8138,0.69,5.42,11111222 
SCCF RECON,ioos:station:SCCF:18:1,2019-09-12T07:00:00Z,26.6955,-81.8138,0.72,5.44,11111222 
SCCF RECON,ioos:station:SCCF:18:1,2019-09-12T08:00:00Z,26.6955,-81.8138,0.761,5.47,11111222 
SCCF RECON,ioos:station:SCCF:18:1,2019-09-12T09:00:00Z,26.6955,-81.8138,0.81,5.42,11111222 
SCCF RECON,ioos:station:SCCF:18:1,2019-09-12T10:00:00Z,26.6955,-81.8138,0.86,5.53,11111222 
SCCF RECON,ioos:station:SCCF:18:1,2019-09-12T11:00:00Z,26.6955,-81.8138,0.87,5.33,11111222 
SCCF RECON,ioos:station:SCCF:18:1,2019-09-12T13:00:00Z,26.6955,-81.8138,0.84,5.6,11111222 
SCCF RECON,ioos:station:SCCF:18:1,2019-09-12T14:00:00Z,26.6955,-81.8138,0.82,5.7,11111222 
SCCF RECON,ioos:station:SCCF:18:1,2019-09-12T15:00:00Z,26.6955,-81.8138,0.785,5.79,11111222 
SCCF RECON,ioos:station:SCCF:18:1,2019-09-12T16:00:00Z,26.6955,-81.8138,0.79,5.75,11111222 
SCCF RECON,ioos:station:SCCF:18:1,2019-09-13T20:00:00Z,26.6955,-81.8138,0.816,6.51,11111222 
SCCF RECON,ioos:station:SCCF:18:1,2019-09-13T21:00:00Z,26.6955,-81.8138,0.86,6.4,11111222 
SCCF RECON,ioos:station:SCCF:18:1,2019-09-13T22:00:00Z,26.6955,-81.8138,0.9,6.31,11111222 
SCCF RECON,ioos:station:SCCF:18:1,2019-09-13T23:00:00Z,26.6955,-81.8138,0.895,6.16,11111222 
SCCF RECON,ioos:station:SCCF:18:1,2019-09-14T04:00:00Z,26.6955,-81.8138,0.651,6.05,11111222 
SCCF RECON,ioos:station:SCCF:18:1,2019-09-14T05:00:00Z,26.6955,-81.8138,0.63,6.05,11111222 
SCCF RECON,ioos:station:SCCF:18:1,2019-09-14T06:00:00Z,26.6955,-81.8138,0.62,6.16,11111222 
SCCF RECON,ioos:station:SCCF:18:1,2019-09-14T07:00:00Z,26.6955,-81.8138,0.634,6.01,11111222 
SCCF RECON,ioos:station:SCCF:18:1,2019-09-14T08:00:00Z,26.6955,-81.8138,0.69,6.04,11111222 
SCCF RECON,ioos:station:SCCF:18:1,2019-09-14T09:00:00Z,26.6955,-81.8138,0.711,6.2,11111222 
SCCF RECON,ioos:station:SCCF:18:1,2019-09-14T10:00:00Z,26.6955,-81.8138,0.76,6.2,11111222 
SCCF RECON,ioos:station:SCCF:18:1,2019-09-14T11:00:00Z,26.6955,-81.8138,0.82,6.22,11111222 
SCCF RECON,ioos:station:SCCF:18:1,2019-09-14T12:00:00Z,26.6955,-81.8138,0.831,6.13,11111222 
SCCF RECON,ioos:station:SCCF:18:1,2019-09-14T13:00:00Z,26.6955,-81.8138,0.82,6.03,11111222 
SCCF RECON,ioos:station:SCCF:18:1,2019-09-14T14:00:00Z,26.6955,-81.8138,0.767,6.14,11111222 
SCCF RECON,ioos:station:SCCF:18:1,2019-09-14T16:00:00Z,26.6955,-81.8138,0.71,6.3,11111222 
SCCF RECON,ioos:station:SCCF:18:1,2019-09-14T17:00:00Z,26.6955,-81.8138,0.713,6.29,11111222 
SCCF RECON,ioos:station:SCCF:18:1,2019-09-14T18:00:00Z,26.6955,-81.8138,0.767,6.38,11111222 
SCCF RECON,ioos:station:SCCF:18:1,2019-09-14T19:00:00Z,26.6955,-81.8138,0.82,6.39,11111222 
SCCF RECON,ioos:station:SCCF:18:1,2019-09-14T20:00:00Z,26.6955,-81.8138,0.82,6.66,11111222 
SCCF RECON,ioos:station:SCCF:18:1,2019-09-14T21:00:00Z,26.6955,-81.8138,0.89,6.58,11111222 
SCCF RECON,ioos:station:SCCF:18:1,2019-09-14T22:00:00Z,26.6955,-81.8138,0.95,6.48,11111222 
SCCF RECON,ioos:station:SCCF:18:1,2019-09-14T23:00:00Z,26.6955,-81.8138,0.975,6.5,11111222 
SCCF RECON,ioos:station:SCCF:18:1,2019-09-15T04:00:00Z,26.6955,-81.8138,0.798,6.28,11111222 
SCCF RECON,ioos:station:SCCF:18:1,2019-09-15T05:00:00Z,26.6955,-81.8138,0.738,6.19,11111222 
SCCF RECON,ioos:station:SCCF:18:1,2019-09-15T06:00:00Z,26.6955,-81.8138,0.75,6.26,11111222 
SCCF RECON,ioos:station:SCCF:18:1,2019-09-15T07:00:00Z,26.6955,-81.8138,0.762,6.13,11111222 
SCCF RECON,ioos:station:SCCF:18:1,2019-09-15T08:00:00Z,26.6955,-81.8138,0.829,6.09,11111222 
SCCF RECON,ioos:station:SCCF:18:1,2019-09-15T09:00:00Z,26.6955,-81.8138,0.85,6.41,11111222 
SCCF RECON,ioos:station:SCCF:18:1,2019-09-15T10:00:00Z,26.6955,-81.8138,0.89,6.46,11111222 
SCCF RECON,ioos:station:SCCF:18:1,2019-09-15T11:00:00Z,26.6955,-81.8138,0.95,6.4,11111222 
SCCF RECON,ioos:station:SCCF:18:1,2019-09-15T12:00:00Z,26.6955,-81.8138,0.997,6.18,11111222 
SCCF RECON,ioos:station:SCCF:18:1,2019-09-15T13:00:00Z,26.6955,-81.8138,0.947,6.07,11111222 
SCCF RECON,ioos:station:SCCF:18:1,2019-09-15T14:00:00Z,26.6955,-81.8138,0.889,6.13,11111222 
SCCF RECON,ioos:station:SCCF:18:1,2019-09-15T15:00:00Z,26.6955,-81.8138,0.851,6.3,11111222 
SCCF RECON,ioos:station:SCCF:18:1,2019-09-15T16:00:00Z,26.6955,-81.8138,0.823,6.3,11111222 
SCCF RECON,ioos:station:SCCF:18:1,2019-09-15T17:00:00Z,26.6955,-81.8138,0.818,6.27,11111222 
SCCF RECON,ioos:station:SCCF:18:1,2019-09-15T18:00:00Z,26.6955,-81.8138,0.879,6.31,11111222 